This demonstration page uses our WeatherBlox Daily Observations layout. Learn more.

Left ArrowRight Arrow

44.8408, -93.29828

Hourly Observations for April 30, 2017

Temp ( °F °C ) Dew Point ( °F °C ) Humidity (%) Winds ( mph kmh ) Pressure ( in mb ) Visibility ( mi km ) Precip ( " mm )
12:53 am 00:53 Cloudy 47 8.3 25 -3.9 42 42 NE 13 20 30.16 1021 10 16 0.00 0.00
1:53 am 01:53 Cloudy 46 7.8 25 -3.9 44 44 NE 16 26 30.15 1021 10 16 0.00 0.00
2:53 am 02:53 Cloudy 46 7.8 25 -3.9 44 44 ENE 15 24 30.15 1021 10 16 0.00 0.00
3:53 am 03:53 Cloudy 45 7.2 25 -3.9 46 46 ENE 15 24 30.11 1020 10 16 0.00 0.00
4:53 am 04:53 Cloudy 45 7.2 24 -4.4 44 44 ENE 12 19 30.11 1020 10 16 0.00 0.00
5:41 am 05:41 Cloudy 44 6.7 24 -4.4 45 45 ENE 13 20 30.06 1018 10 16 0.00 0.00
5:53 am 05:53 Cloudy 44 6.7 23 -5 43 43 ENE 13 20 30.06 1018 10 16 0.00 0.00
6:53 am 06:53 Cloudy 44 6.7 23 -5 43 43 ENE 14 22 30.05 1018 10 16 0.00 0.00
7:53 am 07:53 Cloudy 43 6.1 23 -5 45 45 ENE 9 15 30.03 1017 10 16 0.00 0.00
8:53 am 08:53 Cloudy with Light Rain 43 6.1 27 -2.8 53 53 NE 8 13 30.04 1017 9 14 0.00 0.03
9:53 am 09:53 Cloudy with Light Rain 43 6.1 29 -1.7 58 58 NE 14 22 30.02 1017 10 16 0.00 0.03
10:53 am 10:53 Cloudy with Light Rain 42 5.6 32 0 68 68 NE 9 15 30.02 1017 10 16 0.01 0.25
11:53 am 11:53 Cloudy with Light Rain 43 6.1 33 0.6 68 68 NNE 10 17 30.02 1017 9 14 0.00 0.03
12:53 pm 12:53 Cloudy with Light Rain 44 6.7 36 2.2 73 73 NE 14 22 29.98 1015 10 16 0.02 0.51
1:53 pm 13:53 Cloudy 45 7.2 34 1.1 66 66 ENE 22 35 29.93 1014 10 16 0.00 0.03
2:53 pm 14:53 Cloudy 45 7.2 34 1.1 66 66 NE 23 37 29.89 1012 10 16 0.00 0.00
3:53 pm 15:53 Cloudy 47 8.3 33 0.6 59 59 NE 15 24 29.87 1012 10 16 0.00 0.00
4:53 pm 16:53 Cloudy 48 8.9 33 0.6 56 56 NE 20 31 29.83 1010 10 16 0.00 0.00
5:53 pm 17:53 Cloudy 48 8.9 33 0.6 56 56 NE 17 28 29.81 1010 10 16 0.00 0.00
6:53 pm 18:53 Cloudy with Light Rain 47 8.3 34 1.1 61 61 NNE 20 31 29.76 1008 10 16 0.00 0.03
7:24 pm 19:24 Cloudy with Light Rain 45 7.2 34 1.1 66 66 NE 26 43 29.74 1007 10 16 0.00 0.03
7:53 pm 19:53 Cloudy with Light Rain 45 7.2 34 1.1 66 66 NE 16 26 29.73 1007 10 16 0.00 0.03
8:53 pm 20:53 Cloudy with Light Rain 44 6.7 34 1.1 68 68 NE 17 28 29.71 1006 10 16 0.00 0.03
9:53 pm 21:53 Cloudy with Light Rain 42 5.6 34 1.1 73 73 NE 18 30 29.69 1006 10 16 0.02 0.51
10:53 pm 22:53 Cloudy with Rain 40 4.4 34 1.1 79 79 NNE 13 20 29.66 1004 5 8 0.04 1.02
11:13 pm 23:13 Cloudy with Rain 40 4.4 35 1.7 83 83 NE 13 20 29.68 1005 4 6 0.05 1.27
11:30 pm 23:30 Cloudy with Heavy Rain 39 3.9 35 1.7 86 86 VRB 3 6 29.74 1007 3 4 0.15 3.81
11:53 pm 23:53 Cloudy with Heavy Rain 39 3.9 35 1.7 86 86 NE 9 15 29.73 1007 3 4 0.31 7.87

Powered by AerisWeather